#timestamp,LO_Frequency,Hit,StdDev 
1457744415.2,286046995.7,N
1457744435.9,286046998.0,N
1457744455.7,286046993.7,N
1457744475.6,286046993.8,N
1457744495.4,286046996.7,N
1457744515.2,286046996.2,N
1457744535.1,286046997.2,N
1457744536.0,286046997.2,N
1457744555.8,286046993.8,N
1457744575.6,286046995.9,N
1457744595.4,286046994.6,N
1457744615.3,286046994.2,N
1457744635.1,286046994.8,N
1457744655.8,286046994.2,N
1457744675.7,286046994.4,N
1457744695.5,286046993.3,N
1457744715.3,286046994.5,N
1457744735.2,286046991.1,Y
1457744755.0,286046994.7,P
1457744755.9,286046994.7,P
1457744775.7,286046996.4,P
1457744795.6,286046996.9,N
1457744815.4,286046996.8,Y
1457744835.2,286046998.2,P
1457744855.1,286046999.3,N
1457744856.0,286046999.3,N
1457744875.8,286046996.8,N
1457744895.6,286046997.9,N
1457744915.5,286046997.7,N
1457744935.3,286046996.7,N
1457744955.1,286046995.1,Y
1457744975.9,286046996.8,P
1457744995.7,286046996.5,P
1457745015.5,286046996.6,P
1457745035.4,286046997.0,Y
1457745055.2,286047003.7,P
1457745075.0,286047004.4,N
1457745075.9,286047004.4,N
1457745095.8,286047001.3,N
1457745115.6,286047002.3,N
1457745135.4,286047004.1,N
1457745155.3,286047002.3,N
1457745175.1,286047002.5,N
1457745176.0,286047002.5,N
1457745195.8,286047004.3,N
1457745215.7,286047000.2,N
1457745235.5,286047001.0,N
1457745255.3,286047001.2,N
1457745275.1,286047000.2,N
1457745295.9,286047004.0,N
1457745315.7,286047003.9,N
1457745335.5,286047005.5,N
1457745355.4,286047004.2,N
1457745375.2,286047001.7,N
1457745395.0,286047002.7,N
1457745395.9,286047002.7,N
1457745415.8,286047000.6,N
1457745435.6,286046998.3,N
1457745455.4,286046998.5,N
1457745475.3,286047002.5,N
1457745495.1,286047003.9,N
1457745496.0,286047003.9,N
1457745515.8,286047003.0,N
1457745535.7,286047006.9,Y
1457745555.5,286047003.1,P
1457745575.3,286047001.3,P
1457745595.2,286047003.8,P
1457745615.9,286047001.6,N
1457745635.7,286047001.0,N
1457745655.6,286046998.1,N
1457745675.4,286046999.8,N
1457745695.2,286047001.7,N
1457745715.0,286047002.6,N
1457745715.9,286047002.6,N
1457745735.8,286047003.6,N
1457745755.6,286047005.4,Y
1457745775.4,286047001.8,P
1457745795.3,286047002.0,P
1457745815.1,286047003.6,P
1457745835.8,286047001.5,N
1457745855.7,286047002.8,Y
1457745875.5,286046997.7,P
1457745895.3,286046996.2,N
1457745915.2,286046995.8,N
1457745935.0,286046993.4,N
1457745935.9,286046993.4,N
1457745955.7,286046996.1,N
1457745975.6,286046994.1,N
1457745995.4,286046996.4,N
1457746015.2,286046995.5,N
1457746035.1,286046998.0,N
1457746036.0,286046998.0,N
1457746055.8,286046997.3,N
1457746075.6,286046995.4,N
1457746095.5,286046995.8,N
1457746115.3,286046997.3,N
1457746135.1,286046998.0,N
1457746155.9,286046993.4,Y
1457746175.7,286046999.3,P
1457746195.5,286046998.7,N
1457746215.4,286046998.9,N
1457746235.2,286046997.4,N
1457746255.0,286046999.5,N
1457746255.9,286046999.5,N
1457746275.7,286046998.6,N
1457746295.6,286046997.7,N
1457746315.4,286046997.9,N
1457746335.3,286046996.8,Y
1457746355.1,286046997.4,P
1457746356.0,286046997.4,P
1457746375.8,286046996.4,P
1457746395.7,286046996.0,Y
1457746415.5,286046997.8,P
1457746435.3,286046996.8,P
1457746455.1,286046997.4,P
1457746475.9,286046998.8,Y
1457746495.7,286047000.8,P
1457746515.6,286046998.2,N
1457746535.4,286046997.5,N
1457746555.2,286046995.1,Y
1457746575.1,286046997.2,P
1457746576.0,286046997.2,P
1457746595.8,286047001.1,N
1457746615.6,286047000.4,N
1457746635.4,286047000.0,N
1457746655.3,286047000.3,N
1457746675.1,286046999.4,N
1457746695.9,286046997.8,N
1457746715.7,286046995.0,Y
1457746735.5,286046995.1,P
1457746755.4,286046995.7,N
1457746775.2,286046996.9,N
1457746795.0,286046997.4,N
1457746795.9,286046997.4,N
1457746815.8,286046995.0,Y
1457746835.6,286046998.2,P
1457746855.4,286046996.8,P
1457746875.3,286046995.7,P
1457746895.1,286046995.9,Y
1457746896.0,286046995.9,P
1457746915.8,286047001.2,N
1457746935.7,286047001.2,N
1457746955.5,286047002.0,N
1457746975.3,286047002.5,N
1457746995.2,286047001.6,N
1457747015.9,286047001.0,N
1457747035.7,286047002.5,N
1457747055.5,286047002.3,N
1457747075.4,286047001.6,N
1457747095.2,286047003.8,N
1457747115.0,286047003.4,N
1457747115.9,286047003.4,N
1457747135.8,286047003.3,N
1457747155.6,286047001.5,N
1457747175.4,286047003.3,N
1457747195.3,286047006.4,Y
1457747215.1,286047001.3,P
1457747235.8,286047003.6,P
1457747255.7,286047007.3,P
1457747275.5,286047006.8,N
1457747295.3,286047007.6,Y
1457747315.2,286047000.8,P
1457747335.9,286047003.9,N
1457747355.7,286047005.9,P
1457747375.6,286047003.8,N
1457747395.4,286047001.0,N
1457747415.2,286047001.0,N
1457747435.0,286046997.1,N
1457747436.0,286046997.1,N
1457747455.8,286046999.5,N
1457747475.6,286046997.6,N
1457747495.4,286046997.2,N
1457747515.3,286046996.9,N
1457747535.1,286047002.4,N
1457747555.8,286046999.9,N
1457747575.7,286047001.1,N
1457747595.5,286046998.9,N
1457747615.3,286046999.8,N
1457747635.2,286047001.9,N
1457747655.9,286047001.5,N
1457747675.7,286047002.8,N
1457747695.6,286047002.4,N
1457747715.4,286046998.6,N
1457747735.2,286047000.9,N
1457747755.0,286046998.8,N
1457747756.0,286046998.8,N
1457747775.8,286046998.8,N
1457747795.6,286047000.2,N
1457747815.4,286046998.2,N
1457747835.3,286046997.8,N
1457747855.1,286046996.5,N
1457747875.8,286046999.6,N
1457747895.7,286046994.9,N
1457747915.5,286046997.3,N
1457747935.3,286046998.0,N
1457747955.2,286046997.5,N
1457747975.9,286046997.1,N
1457747995.7,286047001.2,N
